RYR8588 EPGD-ESNS

Flight info

Callsign RYR8588
Flight time 1h 47m
Altitude 38000
Route VAPOS N133 PENOR DCT DISRU DCT RESNA/N0443F370 DCT RIKPA DCT UMSOM DCT SOPLI
Aircraft B738/M-SDE2E3FGHIRWXY/LB1

Departure

Time 2026-05-04 21:50
Airport Gdańsk Lech Wałęsa Airport (EPGD)

Arrival

Time 2026-05-04 23:37
Airport Skellefteå Airport (ESNS)
Time Latitude Longitude Altitude Speed Heading
2026-05-04 21:36 54.38009 18.47013 459 ft 0 kts 353°
2026-05-04 21:42 54.37999 18.47014 459 ft 4 kts 355°
2026-05-04 21:43 54.37973 18.47022 456 ft 4 kts 344°
2026-05-04 21:43 54.37950 18.47035 456 ft 1 kts 341°
2026-05-04 21:43 54.37946 18.47038 457 ft 0 kts 341°
2026-05-04 21:46 54.37947 18.47036 457 ft 1 kts 327°
2026-05-04 21:46 54.37942 18.47016 457 ft 3 kts 237°
2026-05-04 21:46 54.37903 18.46975 458 ft 11 kts 204°
2026-05-04 21:46 54.37834 18.47022 458 ft 15 kts 112°
2026-05-04 21:47 54.37784 18.47233 457 ft 24 kts 112°
2026-05-04 21:47 54.37707 18.47546 462 ft 32 kts 113°
2026-05-04 21:47 54.37611 18.47931 469 ft 38 kts 113°
2026-05-04 21:47 54.37502 18.48372 476 ft 42 kts 113°
2026-05-04 21:48 54.37390 18.48823 489 ft 39 kts 112°
2026-05-04 21:48 54.37317 18.49120 493 ft 21 kts 117°
2026-05-04 21:48 54.37243 18.49142 494 ft 11 kts 195°
2026-05-04 21:48 54.37172 18.49092 489 ft 11 kts 212°
2026-05-04 21:49 54.37174 18.48975 489 ft 11 kts 291°
2026-05-04 21:49 54.37282 18.48535 489 ft 75 kts 293°
2026-05-04 21:49 54.37578 18.47344 463 ft 138 kts 291°
2026-05-04 21:49 54.38013 18.45609 659 ft 169 kts 292°
2026-05-04 21:50 54.38467 18.43823 1583 ft 160 kts 292°
2026-05-04 21:50 54.38889 18.42081 2429 ft 157 kts 291°
2026-05-04 21:50 54.39307 18.40367 3242 ft 155 kts 289°
2026-05-04 21:50 54.39711 18.38665 3955 ft 162 kts 291°
2026-05-04 21:51 54.40197 18.36692 4279 ft 195 kts 291°
2026-05-04 21:51 54.40763 18.34393 4532 ft 221 kts 291°
2026-05-04 21:51 54.41380 18.31900 5018 ft 236 kts 290°
2026-05-04 21:51 54.42046 18.29193 5462 ft 253 kts 291°
2026-05-04 21:52 54.43011 18.26637 6381 ft 259 kts 311°
2026-05-04 21:52 54.44440 18.24718 7349 ft 264 kts 322°
2026-05-04 21:52 54.45480 18.23597 7926 ft 268 kts 324°
2026-05-04 21:52 54.47093 18.21943 8827 ft 272 kts 324°
2026-05-04 21:53 54.48727 18.20272 9743 ft 275 kts 324°
2026-05-04 21:53 54.50386 18.18558 10442 ft 285 kts 323°
2026-05-04 21:53 54.52157 18.16698 10683 ft 310 kts 323°
2026-05-04 21:53 54.54026 18.14728 11310 ft 319 kts 323°
2026-05-04 21:54 54.55935 18.12708 12128 ft 323 kts 323°
2026-05-04 21:54 54.57849 18.10674 12957 ft 327 kts 323°
2026-05-04 21:54 54.59794 18.08580 13749 ft 331 kts 321°
2026-05-04 21:54 54.61671 18.06260 14475 ft 333 kts 318°
2026-05-04 21:55 54.63511 18.03826 15251 ft 335 kts 317°
2026-05-04 21:55 54.65360 18.01353 16001 ft 338 kts 317°
2026-05-04 21:55 54.67229 17.98862 16740 ft 341 kts 317°
2026-05-04 21:55 54.69120 17.96359 17480 ft 344 kts 317°
2026-05-04 21:56 54.71032 17.93838 18203 ft 348 kts 317°
2026-05-04 21:56 54.72969 17.91292 18827 ft 351 kts 317°
2026-05-04 21:56 54.74921 17.88730 19486 ft 353 kts 317°
2026-05-04 21:56 54.76883 17.86149 20137 ft 355 kts 316°
2026-05-04 21:57 54.78858 17.83550 20772 ft 358 kts 317°
2026-05-04 21:57 54.81003 17.81251 21369 ft 369 kts 327°
2026-05-04 21:57 54.83330 17.79443 21983 ft 373 kts 330°
2026-05-04 21:57 54.85758 17.77642 22586 ft 377 kts 330°
2026-05-04 21:58 54.88131 17.75860 23158 ft 379 kts 329°
2026-05-04 21:58 54.90553 17.73999 23701 ft 382 kts 329°
2026-05-04 21:58 54.92979 17.72100 24202 ft 383 kts 328°
2026-05-04 21:58 54.95412 17.70179 24739 ft 384 kts 328°
2026-05-04 21:59 54.97853 17.68249 25265 ft 385 kts 328°
2026-05-04 21:59 55.00307 17.66352 25753 ft 388 kts 329°
2026-05-04 21:59 55.02780 17.64442 26239 ft 390 kts 327°
2026-05-04 21:59 55.05263 17.62525 26702 ft 391 kts 328°
2026-05-04 22:00 55.07768 17.60616 27196 ft 393 kts 328°
2026-05-04 22:00 55.10279 17.58708 27637 ft 394 kts 327°
2026-05-04 22:00 55.12784 17.56802 28072 ft 396 kts 327°
2026-05-04 22:00 55.15316 17.54870 28496 ft 398 kts 327°
2026-05-04 22:01 55.17857 17.52920 28915 ft 399 kts 327°
2026-05-04 22:01 55.20404 17.50955 29332 ft 401 kts 327°
2026-05-04 22:01 55.22957 17.48964 29729 ft 402 kts 327°
2026-05-04 22:01 55.25508 17.46931 30094 ft 404 kts 326°
2026-05-04 22:02 55.28070 17.44874 30367 ft 406 kts 327°
2026-05-04 22:02 55.30645 17.42806 30623 ft 409 kts 327°
2026-05-04 22:02 55.33248 17.40721 30924 ft 412 kts 327°
2026-05-04 22:02 55.35862 17.38630 31233 ft 414 kts 327°
2026-05-04 22:03 55.38495 17.36522 31440 ft 417 kts 327°
2026-05-04 22:03 55.41144 17.34402 31659 ft 420 kts 328°
2026-05-04 22:03 55.43813 17.32265 31909 ft 422 kts 328°
2026-05-04 22:03 55.46489 17.30121 32245 ft 422 kts 328°
2026-05-04 22:04 55.49161 17.27979 32612 ft 421 kts 328°
2026-05-04 22:04 55.51829 17.25836 32934 ft 421 kts 328°
2026-05-04 22:04 55.54463 17.23716 33223 ft 422 kts 328°
2026-05-04 22:04 55.57132 17.21560 33538 ft 422 kts 329°
2026-05-04 22:05 55.59802 17.19403 33865 ft 422 kts 329°
2026-05-04 22:05 55.62605 17.17696 34090 ft 431 kts 340°
2026-05-04 22:05 55.65587 17.16811 34342 ft 438 kts 348°
2026-05-04 22:05 55.68663 17.16717 34453 ft 449 kts 358°
2026-05-04 22:06 55.71776 17.17203 34742 ft 449 kts
2026-05-04 22:06 55.74879 17.17786 35035 ft 448 kts
2026-05-04 22:06 55.77979 17.18398 35254 ft 449 kts
2026-05-04 22:06 55.81088 17.19010 35448 ft 450 kts
2026-05-04 22:07 55.84194 17.19609 35684 ft 450 kts
2026-05-04 22:07 55.87305 17.20197 35922 ft 449 kts 360°
2026-05-04 22:07 55.90415 17.20773 36183 ft 449 kts 360°
2026-05-04 22:07 55.93522 17.21343 36438 ft 448 kts 360°
2026-05-04 22:08 55.96623 17.21907 36674 ft 448 kts
2026-05-04 22:08 55.99727 17.22468 36900 ft 448 kts
2026-05-04 22:08 56.02829 17.23030 37153 ft 447 kts 360°
2026-05-04 22:08 56.05925 17.23593 37359 ft 447 kts 360°
2026-05-04 22:09 56.09020 17.24158 37511 ft 449 kts
2026-05-04 22:09 56.12132 17.24727 37692 ft 449 kts
2026-05-04 22:09 56.15240 17.25300 37904 ft 449 kts
2026-05-04 22:09 56.18346 17.25872 38117 ft 449 kts
2026-05-04 22:10 56.21448 17.26443 38304 ft 449 kts 360°
2026-05-04 22:10 56.24552 17.27016 38499 ft 448 kts
2026-05-04 22:10 56.27658 17.27590 38631 ft 449 kts
2026-05-04 22:11 56.33881 17.28742 38854 ft 450 kts
2026-05-04 22:11 56.40095 17.29895 38874 ft 453 kts 360°
2026-05-04 22:12 56.46341 17.31061 38887 ft 450 kts
2026-05-04 22:12 56.52565 17.32225 38874 ft 448 kts
2026-05-04 22:13 56.58762 17.33389 38882 ft 447 kts 360°
2026-05-04 22:13 56.64937 17.34551 38867 ft 446 kts 360°
2026-05-04 22:14 56.71097 17.35715 38877 ft 445 kts 360°
2026-05-04 22:14 56.77270 17.36883 38870 ft 446 kts 360°
2026-05-04 22:15 56.83460 17.38059 38869 ft 448 kts
2026-05-04 22:15 56.89697 17.39247 38885 ft 453 kts
2026-05-04 22:16 56.96011 17.40456 38870 ft 459 kts 360°
2026-05-04 22:16 57.02404 17.41686 38864 ft 465 kts
2026-05-04 22:17 57.08824 17.42923 38857 ft 469 kts
2026-05-04 22:17 57.15342 17.44182 38849 ft 472 kts
2026-05-04 22:18 57.21881 17.45455 38855 ft 473 kts 360°
2026-05-04 22:18 57.28430 17.46729 38857 ft 474 kts
2026-05-04 22:19 57.34991 17.48016 38850 ft 474 kts
2026-05-04 22:19 57.41545 17.49303 38845 ft 473 kts
2026-05-04 22:20 57.48090 17.50591 38834 ft 472 kts
2026-05-04 22:20 57.54614 17.51881 38824 ft 471 kts
2026-05-04 22:21 57.61115 17.53172 38830 ft 469 kts 360°
2026-05-04 22:21 57.67604 17.54461 38833 ft 469 kts
2026-05-04 22:22 57.74083 17.55755 38821 ft 468 kts
2026-05-04 22:22 57.80551 17.57053 38833 ft 467 kts
2026-05-04 22:23 57.87009 17.58355 38823 ft 467 kts 360°
2026-05-04 22:23 57.93477 17.59662 38802 ft 467 kts
2026-05-04 22:24 57.99936 17.60978 38823 ft 466 kts
2026-05-04 22:24 58.06388 17.62286 38793 ft 467 kts
2026-05-04 22:25 58.12853 17.63606 38811 ft 468 kts
2026-05-04 22:25 58.19330 17.64936 38802 ft 468 kts
2026-05-04 22:26 58.25822 17.66278 38801 ft 469 kts
2026-05-04 22:26 58.32318 17.67625 38772 ft 471 kts
2026-05-04 22:27 58.38789 17.68972 38810 ft 471 kts
2026-05-04 22:27 58.45309 17.70333 38800 ft 472 kts
2026-05-04 22:28 58.51843 17.71710 38785 ft 472 kts
2026-05-04 22:28 58.58372 17.73091 38771 ft 472 kts
2026-05-04 22:29 58.64896 17.74303 38752 ft 470 kts 359°
2026-05-04 22:29 58.71404 17.75233 38755 ft 469 kts 358°
2026-05-04 22:30 58.77900 17.76178 38758 ft 467 kts 358°
2026-05-04 22:30 58.84375 17.77173 38747 ft 466 kts 358°
2026-05-04 22:31 58.90837 17.78201 38754 ft 465 kts 358°
2026-05-04 22:31 58.97287 17.79228 38756 ft 465 kts 359°
2026-05-04 22:32 59.03726 17.80259 38746 ft 464 kts 358°
2026-05-04 22:32 59.10164 17.81292 38712 ft 464 kts 358°
2026-05-04 22:33 59.16599 17.82327 38727 ft 464 kts 358°
2026-05-04 22:33 59.23034 17.83365 38721 ft 464 kts 358°
2026-05-04 22:34 59.29478 17.84414 38724 ft 465 kts 358°
2026-05-04 22:34 59.35923 17.85462 38725 ft 465 kts 358°
2026-05-04 22:35 59.42371 17.86521 38725 ft 465 kts 359°
2026-05-04 22:35 59.48831 17.87581 38714 ft 466 kts 358°
2026-05-04 22:36 59.55287 17.88641 38702 ft 466 kts 359°
2026-05-04 22:36 59.61761 17.89716 38692 ft 467 kts 358°
2026-05-04 22:37 59.68234 17.90789 38697 ft 467 kts 358°
2026-05-04 22:37 59.74713 17.91864 38696 ft 467 kts 359°
2026-05-04 22:38 59.81192 17.92949 38654 ft 468 kts 359°
2026-05-04 22:38 59.87684 17.94042 38676 ft 468 kts 358°
2026-05-04 22:39 59.94180 17.95138 38652 ft 469 kts 358°
2026-05-04 22:39 60.00680 17.96246 38661 ft 468 kts 358°
2026-05-04 22:40 60.07179 17.97353 38654 ft 468 kts 359°
2026-05-04 22:40 60.12574 17.98275 38685 ft 469 kts 358°
2026-05-04 22:41 60.19084 17.99400 38660 ft 469 kts 358°
2026-05-04 22:41 60.25596 18.00535 38646 ft 470 kts 359°
2026-05-04 22:42 60.33165 18.01853 38650 ft 470 kts 358°
2026-05-04 22:42 60.38611 18.03398 38602 ft 478 kts
2026-05-04 22:43 60.44987 18.07251 38648 ft 479 kts 11°
2026-05-04 22:43 60.51353 18.11332 38626 ft 480 kts 12°
2026-05-04 22:44 60.57717 18.15364 38631 ft 480 kts 11°
2026-05-04 22:44 60.64052 18.19332 38641 ft 479 kts 11°
2026-05-04 22:45 60.70442 18.23322 38651 ft 481 kts 11°
2026-05-04 22:45 60.80041 18.29355 38641 ft 482 kts 11°
2026-05-04 22:46 60.86451 18.33405 38631 ft 483 kts 11°
2026-05-04 22:46 60.92873 18.37485 38642 ft 483 kts 11°
2026-05-04 22:47 60.99302 18.41585 38663 ft 484 kts 11°
2026-05-04 22:47 61.05756 18.45718 38639 ft 486 kts 11°
2026-05-04 22:48 61.12210 18.49871 38660 ft 486 kts 12°
2026-05-04 22:48 61.18668 18.54040 38649 ft 486 kts 12°
2026-05-04 22:49 61.25126 18.58236 38686 ft 487 kts 11°
2026-05-04 22:49 61.31601 18.62453 38649 ft 488 kts 11°
2026-05-04 22:50 61.38076 18.66693 38650 ft 488 kts 11°
2026-05-04 22:50 61.44542 18.70952 38636 ft 488 kts 12°
2026-05-04 22:51 61.51009 18.75221 38648 ft 487 kts 12°
2026-05-04 22:51 61.57473 18.79507 38669 ft 487 kts 12°
2026-05-04 22:52 61.63944 18.83823 38643 ft 488 kts 12°
2026-05-04 22:52 61.70421 18.88167 38652 ft 489 kts 12°
2026-05-04 22:53 61.76898 18.92538 38643 ft 490 kts 12°
2026-05-04 22:53 61.83389 18.96923 38696 ft 490 kts 12°
2026-05-04 22:54 61.89900 19.01301 38659 ft 492 kts 11°
2026-05-04 22:54 61.96434 19.05718 38649 ft 493 kts 12°
2026-05-04 22:55 62.02945 19.10161 38630 ft 495 kts 12°
2026-05-04 22:55 62.09505 19.14675 38631 ft 496 kts 12°
2026-05-04 22:56 62.16132 19.19260 38630 ft 498 kts 12°
2026-05-04 22:56 62.22688 19.23818 38633 ft 499 kts 12°
2026-05-04 22:57 62.29266 19.28402 38615 ft 499 kts 12°
2026-05-04 22:57 62.35869 19.33027 38619 ft 499 kts 12°
2026-05-04 22:58 62.42499 19.37673 38638 ft 500 kts 13°
2026-05-04 22:58 62.49079 19.42338 38621 ft 500 kts 13°
2026-05-04 22:59 62.55691 19.47039 38601 ft 501 kts 13°
2026-05-04 22:59 62.62306 19.51763 38608 ft 500 kts 13°
2026-05-04 23:00 62.68915 19.56509 38623 ft 500 kts 13°
2026-05-04 23:00 62.75513 19.61260 38594 ft 500 kts 13°
2026-05-04 23:01 62.82109 19.66035 38607 ft 498 kts 13°
2026-05-04 23:01 62.88694 19.70825 38395 ft 502 kts 13°
2026-05-04 23:02 62.92026 19.73256 37746 ft 505 kts 13°
2026-05-04 23:02 62.95349 19.75694 37110 ft 502 kts 13°
2026-05-04 23:02 62.98660 19.78128 36502 ft 501 kts 13°
2026-05-04 23:02 63.01962 19.80564 35849 ft 500 kts 13°
2026-05-04 23:03 63.05262 19.83003 35148 ft 501 kts 13°
2026-05-04 23:03 63.08565 19.85447 34402 ft 502 kts 13°
2026-05-04 23:03 63.11884 19.87907 33645 ft 503 kts 13°
2026-05-04 23:03 63.15203 19.90375 32862 ft 502 kts 13°
2026-05-04 23:04 63.18516 19.92847 31925 ft 504 kts 12°
2026-05-04 23:04 63.21832 19.95327 31095 ft 504 kts 12°
2026-05-04 23:04 63.25158 19.97823 30211 ft 505 kts 11°
2026-05-04 23:04 63.28491 20.00331 29213 ft 507 kts 11°
2026-05-04 23:05 63.31832 20.02844 28215 ft 506 kts 11°
2026-05-04 23:05 63.35137 20.05340 27542 ft 498 kts 11°
2026-05-04 23:05 63.38402 20.07802 26835 ft 492 kts 11°
2026-05-04 23:05 63.41629 20.10233 26164 ft 487 kts 11°
2026-05-04 23:06 63.44807 20.12633 25505 ft 482 kts 11°
2026-05-04 23:06 63.47967 20.15027 24848 ft 477 kts 11°
2026-05-04 23:06 63.51096 20.17404 24184 ft 473 kts 11°
2026-05-04 23:06 63.54202 20.19772 23508 ft 470 kts 11°
2026-05-04 23:07 63.57245 20.22098 22821 ft 466 kts 12°
2026-05-04 23:07 63.60345 20.24478 22032 ft 462 kts 12°
2026-05-04 23:07 63.63294 20.26755 21352 ft 446 kts 12°
2026-05-04 23:07 63.66173 20.28986 20732 ft 430 kts 12°
2026-05-04 23:08 63.68961 20.31144 20108 ft 417 kts 11°
2026-05-04 23:08 63.71669 20.33236 19519 ft 407 kts 11°
2026-05-04 23:08 63.74311 20.35276 18943 ft 398 kts 11°
2026-05-04 23:08 63.76911 20.37286 18385 ft 394 kts 11°
2026-05-04 23:09 63.79558 20.39317 17830 ft 413 kts 11°
2026-05-04 23:09 63.82314 20.41439 17111 ft 419 kts 12°
2026-05-04 23:09 63.85051 20.43584 16456 ft 415 kts 12°
2026-05-04 23:09 63.87758 20.45721 15900 ft 409 kts 14°
2026-05-04 23:10 63.90415 20.47823 15306 ft 403 kts 14°
2026-05-04 23:10 63.93043 20.49899 14702 ft 398 kts 14°
2026-05-04 23:10 63.95638 20.51950 14119 ft 392 kts 15°
2026-05-04 23:10 63.98205 20.53977 13524 ft 388 kts 15°
2026-05-04 23:11 64.00735 20.55979 12917 ft 383 kts 15°
2026-05-04 23:11 64.03236 20.57960 12322 ft 377 kts 15°
2026-05-04 23:11 64.05703 20.59917 11737 ft 373 kts 15°
2026-05-04 23:11 64.08139 20.61856 11174 ft 368 kts 15°
2026-05-04 23:12 64.10546 20.63774 10607 ft 364 kts 16°
2026-05-04 23:12 64.12915 20.65668 10288 ft 354 kts 16°
2026-05-04 23:12 64.15196 20.67495 10121 ft 341 kts 16°
2026-05-04 23:12 64.17395 20.69251 9989 ft 329 kts 16°
2026-05-04 23:13 64.19516 20.70948 9850 ft 317 kts 16°
2026-05-04 23:13 64.21567 20.72588 9714 ft 307 kts 15°
2026-05-04 23:13 64.23463 20.74676 9549 ft 303 kts 37°
2026-05-04 23:13 64.24846 20.78208 9555 ft 291 kts 49°
2026-05-04 23:14 64.26080 20.81873 9114 ft 293 kts 50°
2026-05-04 23:14 64.27307 20.85602 8802 ft 292 kts 50°
2026-05-04 23:14 64.28521 20.89322 8460 ft 290 kts 50°
2026-05-04 23:14 64.29734 20.93021 8147 ft 288 kts 50°
2026-05-04 23:15 64.30922 20.96645 7855 ft 286 kts 50°
2026-05-04 23:15 64.32114 21.00284 7575 ft 284 kts 50°
2026-05-04 23:15 64.33301 21.03905 7283 ft 282 kts 50°
2026-05-04 23:15 64.34475 21.07502 6991 ft 280 kts 50°
2026-05-04 23:16 64.35647 21.11086 6694 ft 279 kts 50°
2026-05-04 23:16 64.36810 21.14646 6402 ft 277 kts 50°
2026-05-04 23:16 64.37964 21.18184 6133 ft 276 kts 50°
2026-05-04 23:16 64.39119 21.21714 5820 ft 275 kts 51°
2026-05-04 23:17 64.40262 21.25265 5536 ft 275 kts 51°
2026-05-04 23:17 64.41399 21.28808 5234 ft 275 kts 50°
2026-05-04 23:17 64.42545 21.32339 4940 ft 274 kts 50°
2026-05-04 23:17 64.43688 21.35850 4648 ft 272 kts 50°
2026-05-04 23:18 64.44839 21.39281 4466 ft 266 kts 49°
2026-05-04 23:18 64.45932 21.42674 4355 ft 260 kts 50°
2026-05-04 23:18 64.46988 21.45980 4274 ft 246 kts 50°
2026-05-04 23:18 64.47995 21.49102 3957 ft 244 kts 46°
2026-05-04 23:19 64.49336 21.51342 3461 ft 236 kts 12°
2026-05-04 23:19 64.50912 21.52318 3009 ft 234 kts
2026-05-04 23:19 64.52504 21.53295 2590 ft 239 kts 11°
2026-05-04 23:19 64.54077 21.54262 2520 ft 229 kts
2026-05-04 23:20 64.55553 21.53968 2503 ft 204 kts 328°
2026-05-04 23:20 64.56431 21.51691 2491 ft 183 kts 295°
2026-05-04 23:20 64.56988 21.49170 2489 ft 170 kts 297°
2026-05-04 23:20 64.57461 21.46662 2491 ft 169 kts 289°
2026-05-04 23:21 64.57831 21.44103 2503 ft 162 kts 290°
2026-05-04 23:21 64.58197 21.41690 2483 ft 153 kts 287°
2026-05-04 23:21 64.58509 21.39376 2493 ft 148 kts 287°
2026-05-04 23:21 64.58815 21.37099 2446 ft 149 kts 287°
2026-05-04 23:22 64.59101 21.34715 2258 ft 154 kts 287°
2026-05-04 23:22 64.59391 21.32388 2054 ft 145 kts 287°
2026-05-04 23:22 64.59658 21.30183 1872 ft 139 kts 287°
2026-05-04 23:22 64.59933 21.28013 1694 ft 140 kts 287°
2026-05-04 23:23 64.60206 21.25832 1517 ft 139 kts 287°
2026-05-04 23:23 64.60464 21.23762 1333 ft 126 kts 285°
2026-05-04 23:23 64.60691 21.21907 1226 ft 115 kts 284°
2026-05-04 23:23 64.60924 21.20045 1022 ft 121 kts 282°
2026-05-04 23:24 64.61167 21.18109 832 ft 126 kts 282°
2026-05-04 23:24 64.61414 21.16144 684 ft 129 kts 281°
2026-05-04 23:24 64.61679 21.14128 489 ft 130 kts 289°
2026-05-04 23:24 64.61948 21.12131 352 ft 129 kts 275°
2026-05-04 23:25 64.62130 21.10041 312 ft 139 kts 271°
2026-05-04 23:25 64.62304 21.08011 1496 ft 114 kts 285°
2026-05-04 23:25 64.62466 21.06140 1885 ft 143 kts 285°
2026-05-04 23:25 64.62692 21.03551 2261 ft 180 kts 285°
2026-05-04 23:26 64.63263 21.00851 2373 ft 190 kts 313°
2026-05-04 23:26 64.64316 20.99068 2661 ft 193 kts 337°
2026-05-04 23:26 64.65695 20.98994 2994 ft 213 kts 13°
2026-05-04 23:26 64.66995 21.01000 3337 ft 240 kts 46°
2026-05-04 23:27 64.67758 21.04670 3649 ft 266 kts 77°
2026-05-04 23:27 64.67734 21.09029 3983 ft 271 kts 98°
2026-05-04 23:27 64.67509 21.11923 3996 ft 276 kts 100°
2026-05-04 23:27 64.67128 21.16312 3991 ft 275 kts 101°
2026-05-04 23:28 64.66738 21.20675 3999 ft 275 kts 98°
2026-05-04 23:28 64.66351 21.25058 3872 ft 276 kts 103°
2026-05-04 23:28 64.65916 21.29373 3895 ft 270 kts 102°
2026-05-04 23:28 64.65515 21.33624 3945 ft 268 kts 101°
2026-05-04 23:29 64.65112 21.37906 4013 ft 272 kts 103°
2026-05-04 23:29 64.64534 21.42140 4068 ft 275 kts 105°
2026-05-04 23:29 64.64066 21.46481 3980 ft 276 kts 102°
2026-05-04 23:29 64.63667 21.50794 3744 ft 268 kts 105°
2026-05-04 23:30 64.62840 21.54462 3515 ft 254 kts 135°
2026-05-04 23:30 64.61421 21.56643 3280 ft 239 kts 161°
2026-05-04 23:30 64.59890 21.57899 3063 ft 229 kts 165°
2026-05-04 23:30 64.58370 21.58418 2800 ft 215 kts 196°
2026-05-04 23:31 64.57200 21.56715 2572 ft 191 kts 243°
2026-05-04 23:31 64.57001 21.53964 2534 ft 169 kts 285°
2026-05-04 23:31 64.57241 21.51302 2506 ft 167 kts 282°
2026-05-04 23:31 64.57474 21.48739 2481 ft 156 kts 285°
2026-05-04 23:32 64.57730 21.46345 2501 ft 151 kts 286°
2026-05-04 23:32 64.57998 21.44003 2508 ft 149 kts 287°
2026-05-04 23:32 64.58270 21.41687 2498 ft 148 kts 287°
2026-05-04 23:32 64.58548 21.39378 2520 ft 149 kts 288°
2026-05-04 23:33 64.58832 21.37035 2402 ft 150 kts 288°
2026-05-04 23:33 64.59110 21.34715 2243 ft 150 kts 289°
2026-05-04 23:33 64.59399 21.32394 2068 ft 149 kts 289°
2026-05-04 23:33 64.59680 21.30130 1865 ft 142 kts 289°
2026-05-04 23:34 64.59953 21.27933 1692 ft 140 kts 288°
2026-05-04 23:34 64.60225 21.25748 1510 ft 140 kts 288°
2026-05-04 23:34 64.60493 21.23589 1291 ft 134 kts 288°
2026-05-04 23:34 64.60733 21.21658 1157 ft 119 kts 288°
2026-05-04 23:35 64.60967 21.19784 978 ft 122 kts 286°
2026-05-04 23:35 64.61207 21.17838 809 ft 127 kts 285°
2026-05-04 23:35 64.61452 21.15880 662 ft 126 kts 285°
2026-05-04 23:35 64.61698 21.13917 480 ft 125 kts 284°
2026-05-04 23:36 64.61949 21.11978 322 ft 125 kts 283°
2026-05-04 23:36 64.62186 21.10035 180 ft 124 kts 286°
2026-05-04 23:36 64.62399 21.08279 161 ft 98 kts 286°
2026-05-04 23:36 64.62555 21.07056 159 ft 57 kts 286°
2026-05-04 23:37 64.62662 21.06199 154 ft 43 kts 285°
2026-05-04 23:37 64.62684 21.05732 160 ft 17 kts 260°
2026-05-04 23:37 64.62718 21.05656 161 ft 1 kts 31°
2026-05-04 23:37 64.62722 21.05695 161 ft 4 kts 81°
2026-05-04 23:38 64.62711 21.05814 160 ft 14 kts 105°
2026-05-04 23:38 64.62672 21.06123 155 ft 23 kts 107°
2026-05-04 23:38 64.62624 21.06494 155 ft 23 kts 107°
2026-05-04 23:38 64.62590 21.06793 159 ft 9 kts 105°
2026-05-04 23:39 64.62585 21.06816 160 ft 1 kts 128°
2026-05-04 23:39 64.62582 21.06824 160 ft 1 kts 129°
2026-05-04 23:39 64.62549 21.06859 161 ft 9 kts 172°
2026-05-04 23:39 64.62469 21.06800 157 ft 14 kts 201°
2026-05-04 23:40 64.62445 21.06806 158 ft 3 kts 166°
2026-05-04 23:40 64.62428 21.06834 159 ft 4 kts 130°
2026-05-04 23:40 64.62403 21.06905 159 ft 3 kts 167°
2026-05-04 23:40 64.62393 21.06859 159 ft 5 kts 253°
2026-05-04 23:41 64.62377 21.06798 159 ft 0 kts 238°
2026-05-04 23:41 64.62375 21.06793 159 ft 0 kts 238°